National Weather Service Raw Text Product

Displaying AFOS PIL: RWRFWD Received: 2019-01-23 05:00 UTC


433 
ASUS44 KFWD 230501
RWRFWD
NORTH TEXAS HOURLY WEATHER ROUNDUP
NATIONAL WEATHER SERVICE FORT WORTH TX
1100 PM CST TUE JAN 22 2019

NOTE: "FAIR" INDICATES FEW OR NO CLOUDS BELOW 12,000 FEET WITH NO
SIGNIFICANT WEATHER AND/OR OBSTRUCTIONS TO VISIBILITY.

TXZ118-119-230600-
DALLAS/FORT WORTH METROPLEX
  
CITY           SKY/WX    TMP DP  RH WIND       PRES   REMARKS
DFW AIRPORT    CLOUDY    38  25  59 NW22G30   30.04R WCI  27          
DALLAS LOVE    CLOUDY    40  29  64 NW20G32   30.05F WCI  30          
FTW MEACHAM    CLOUDY    37  26  64 NW21G32   30.07R WCI  26          
DAL-EXECUTIVE  CLOUDY    38  26  62 NW24G36   30.03F WCI  27          
FTW-ALLIANCE   CLOUDY    37  23  56 NW26G32   30.07R WCI  25          
FTW-NAS-JRB    LGT RAIN  40  22  48 NW28G38   30.07R WCI  29          
FTW-SPINKS     CLOUDY    39  25  56 NW15G33   30.10R WCI  31          
ARLINGTON      CLOUDY    40  27  59 NW26G41   30.04F WCI  29          
GRAND PRAIRIE  FAIR      40  26  57 NW16G25   30.07S WCI  31          
ADDISON        CLOUDY    38  28  66 NW16G30   30.09R WCI  29          
MESQUITE       CLOUDY    38  29  68 NW20G26   30.05S WCI  28          
LANCASTER      MOCLDY    39  29  66 NW21G33   30.05R WCI  29          
$$

TXZ091>094-102>105-117-120-121-131>134-230600-
NORTH CENTRAL TEXAS
  
CITY           SKY/WX    TMP DP  RH WIND       PRES   REMARKS
SHRMAN/DENISON CLOUDY    34  26  74 NW17G29   30.07S WCI  23          
GAINESVILLE    MOCLDY    33  22  66 N18G32    30.09S WCI  21          
BOWIE          MOCLDY    32  21  64 NW20G29   30.09S WCI  20          
BRIDGEPORT     FAIR      36  23  61 MISG      30.11S                  
DECATUR        MOCLDY    34  22  60 NW14G30   30.07S WCI  25          
DENTON         CLOUDY    36  24  62 NW25G31   30.07R WCI  24          
MCKINNEY       LGT RAIN  37  28  70 NW23G33   30.03F WCI  26          
BONHAM         CLOUDY    33  28  81 NW18G25   30.02F WCI  22          
ROCKWALL       CLOUDY    41  33  71 NW14G26   30.04F WCI  34          
TERRELL        CLOUDY    40  31  70 NW17      30.02F WCI  31          
WAXAHACHIE     CLOUDY    39  30  70 NW15G30   30.04R WCI  31          
CLEBURNE         N/A     39  23  52 NW24G32   30.09R WCI  28          
GRANBURY       CLOUDY    40  23  50 NW18G35   30.10R WCI  31          
$$

TXZ083>090-098>101-113>116-127>130-139>142-154-155-230600-
WESTERN NORTH TEXAS
  
CITY           SKY/WX    TMP DP  RH WIND       PRES   REMARKS
WICHITA FALLS  FAIR      30  19  63 NW20      30.17R WCI  17          
WF-KICKAPOO    FAIR      32  18  57 NW13G23   30.20R WCI  22          
VERNON         FAIR      29  14  53 N25       30.19F WCI  15          
ABILENE        FAIR      36  17  46 N31G39    30.17F WCI  23          
GRAHAM         FAIR      33  18  54 NW23G36   30.13F WCI  20          
CISCO          CLOUDY    34  14  44 N23G38    30.14R WCI  22          
EASTLAND       FAIR      34  14  44 NW20G37   30.14R WCI  22          
MINERAL WELLS  FAIR      37  20  50 NW25G40   30.10R WCI  25          
STEPHENVILLE   MOCLDY    38  22  52 NW22G28   30.10F WCI  28          
COMANCHE       CLOUDY    38  21  49 NW21G28   30.12R WCI  28          
BROWNWOOD      CLOUDY    37  14  38 NW29G38   30.15R WCI  25          
COLEMAN        CLOUDY    38  15  39 N21G29    30.18R WCI  27          
BRADY          CLOUDY    39  18  41 N25G32    30.13S WCI  28          
$$

TXZ143>147-156>162-174-175-230600-
CENTRAL TEXAS
  
CITY           SKY/WX    TMP DP  RH WIND       PRES   REMARKS
WACO           LGT RAIN  42  29  59 NW23G37   30.03R WCI  33          
WACO-TSTC      CLOUDY    41  32  70 NW23G37   30.02F WCI  31          
WACO-MCGREGOR  LGT RAIN  41  32  70 NW17G26   30.11R WCI  32          
HILLSBORO      CLOUDY    41  30  64 NW22G36   30.05R WCI  31          
CORSICANA      LGT RAIN  40  34  79 N16G28    30.05F WCI  31          
MEXIA          CLOUDY    40  37  89 NW15      30.01F WCI  32          
HEARNE         LGT RAIN  42  42  97 NW21G28   30.08R WCI  33          
TEMPLE         LGT RAIN  41  38  89 W7        30.10R WCI  36          
KILLEEN        NOT AVBL                                               
KILLEEN-SKYLRK LGT RAIN N/A N/A N/A NW16G22   30.08R                  
FORT HOOD      LGT RAIN  40  34  80 NW15      30.04R WCI  32          
GATESVILLE     FAIR      41  30  65 NW14G30   30.08R WCI  33          
HAMILTON       CLOUDY    40  27  59 NW20G38   30.07S WCI  31          
LAMPASAS       CLOUDY    40  29  65 NW17G28   30.06R WCI  31          
$$

TXZ095>097-106>112-122>126-135>138-148>153-164>167-230600-
EAST TEXAS
  
CITY           SKY/WX    TMP DP  RH WIND       PRES   REMARKS
PARIS          LGT RAIN  35  33  92 NW20G26   30.02R WCI  24          
SULPHUR SPRNGS DRIZZLE   38  36  92 NW18G29   30.05R WCI  28          
MOUNT PLEASANT CLOUDY    40  37  90 NW16G22   30.00R WCI  31          
GILMER         RAIN      41  40  96 NW8       29.98R WCI  36          
MINEOLA          N/A    N/A N/A N/A MISG        N/A                   
TYLER          RAIN      41  39  93 NW15G28   29.98R FOG     WCI  33  
LONGVIEW       RAIN      47  47 100 NW21G33   29.92R WCI  39          
MARSHALL       CLOUDY    58  54  88 W18G25    29.91R                  
ATHENS         RAIN      41  37  87 NW10G21   30.04R WCI  35          
PALESTINE      LGT SNOW  42  42  99 NW16G22   30.01R WCI  34          
JACKSONVILLE   DRIZZLE   45  44  99 NW16      29.96R WCI  38          
CENTER         DRIZZLE   63  62  96 S12G20    29.88                   
NACOGDOCHES    LGT RAIN  63  62  97 SE10      29.86F                  
LUFKIN         LGT RAIN  63  62  97 S15       29.85F                  
$$

SUPPLEMENTAL OBSERVATIONS (NWS FORT WORTH AREA)
  
CITY           SKY/WX    TMP DP  RH WIND       PRES   REMARKS
$$

SUPPLEMENTAL OBSERVATIONS (NWS NORMAN AREA)
  
CITY           SKY/WX    TMP DP  RH WIND       PRES   REMARKS
$$

SUPPLEMENTAL OBSERVATIONS (NWS SAN ANGELO AREA)
  
CITY           SKY/WX    TMP DP  RH WIND       PRES   REMARKS
$$

SUPPLEMENTAL OBSERVATIONS (NWS SHREVEPORT AREA)
  
CITY           SKY/WX    TMP DP  RH WIND       PRES   REMARKS
$$

SUPPLEMENTAL OBSERVATIONS ARE A COLLECTION OF AUTOMATED INSTRUMENTS
THAT ARE MAINTAINED BY A VARIETY OF FEDERAL AND STATE AGENCIES. 
CERTAIN ELEMENTS...SUCH AS HUMIDITY VALUES AND SUSTAINED WIND 
SPEEDS...MAY BE APPROXIMATED.